Home > Weather > Decatur > Past weeks

Flag for U.S.A. Weather for the Past 2 Weeks in Decatur, Illinois, U.S.A.

Now
28 °F

Ice fog.


Feels Like: 21 °F
Forecast: 25 / 46 °F
Wind: 7 mph from South

Location: Decatur Airport

Current Time: Feb 6, 2016 at 6:38:04 AM

Latest Report: Feb 6, 2016 at 5:54 AM


Visibility: 6 mi

Pressure: 30.32 "Hg

Humidity: 85%

Dew point: 24 °F

Location of DecaturLocation

Historic Weather in Decatur — Graph

°F

Decatur Temperature Yesterday

Maximum temperature yesterday: 34 °F (at 2:54 PM)
Minimum temperature yesterday: 25 °F (at 6:54 AM)
Average temperature yesterday: 29 °F

High & Low Weather Summary for the Past Weeks

 TemperatureHumidityPressure
High63 °F (Jan 31, 1:54 PM)97% (Feb 2, 8:54 PM)30.44 "Hg (Feb 2, 8:54 PM)
Low13 °F (Jan 23, 7:54 AM)44% (Feb 1, 2:54 PM)29.45 "Hg (Feb 2, 5:54 PM)
Average35 °F73%30.00 "Hg
* Reported Jan 22 4:54 AM — Feb 6 4:54 AM, Decatur, Weather by CustomWeather, © 2016

Note: Actual official high and low records may vary slightly from our data, if they occured in-between our weather recording intervals... More about our weather records

Advertising

Decatur Weather History for the Previous 24 Hours

 ConditionsComfort  
Time TempWeatherWind HumidityBarometerVisibility
4:54 AM
Sat, Feb 6
29 °FIce fog.6 mph85%30.32 "Hg6 mi
3:54 AM28 °FMostly cloudy.5 mph81%30.33 "Hg6 mi
2:54 AM27 °FIce fog.7 mph85%30.34 "Hg6 mi
1:54 AM25 °FIce fog.No wind85%30.34 "Hg6 mi
12:54 AM26 °FClear.3 mph84%30.34 "Hg7 mi
11:54 PM
Fri, Feb 5
25 °FClear.6 mph81%30.34 "Hg6 mi
10:54 PM26 °FIce fog.3 mph84%30.37 "Hg6 mi
9:54 PM27 °FClear.3 mph85%30.37 "Hg7 mi
8:54 PM28 °FClear.3 mph81%30.38 "Hg7 mi
7:54 PM27 °FClear.3 mph81%30.40 "Hg8 mi
6:54 PM28 °FPassing clouds.No wind78%30.41 "Hg9 mi
5:54 PM27 °FClear.8 mph78%30.39 "Hg10 mi
4:54 PM32 °FPassing clouds.3 mph64%30.41 "Hg10 mi
3:54 PM34 °FScattered clouds.7 mph61%30.40 "Hg10 mi
2:54 PM34 °FSunny.6 mph59%30.40 "Hg10 mi
1:54 PM33 °FSunny.6 mph63%30.40 "Hg10 mi
12:54 PM32 °FPartly sunny.6 mph66%30.40 "Hg10 mi
11:54 AM32 °FScattered clouds.7 mph66%30.42 "Hg10 mi
10:54 AM30 °FOvercast.7 mph69%30.44 "Hg10 mi
9:54 AM29 °FOvercast.9 mph72%30.43 "Hg8 mi
8:54 AM28 °FOvercast.10 mph75%30.43 "Hg8 mi
8:03 AM26 °FPartly sunny.8 mph77%30.39 "Hg6 mi
7:54 AM25 °FScattered clouds.7 mph81%30.42 "Hg6 mi
6:54 AM25 °FClear.10 mph81%30.39 "Hg7 mi
Weather by CustomWeather, © 2016

See weather overviewHow to use our weather pages